Owatonna, MN

11:57 AM CDT on April 30, 2017 (GMT -0500)
Owatonna Degner Regional

Weather History for KOWA - December, 2012

Change the Weather History Date:

Monday, December 10, 2012

  Actual Average Record
Temperature  
Mean Temperature 12 °F -  
Max Temperature 24 °F 28 °F 55 °F (1979)
Min Temperature 1 °F 10 °F -18 °F (1977)
Degree Days  
Heating Degree Days 52    
Moisture  
Dew Point 3 °F    
Average Humidity 71    
Maximum Humidity 79    
Minimum Humidity 66    
Precipitation  
Precipitation 0.00 in - - ()
Sea Level Pressure  
Sea Level Pressure 29.89 in    
Wind  
Wind Speed 11 mph (WSW)    
Max Wind Speed 20 mph    
Max Gust Speed 20 mph    
Visibility 10 miles    
Events Snow    
Averages and records for this station are not official NWS values.
T = Trace of Precipitation, MM = Missing Value Source: NWS Daily Summary

Daily Weather History Graph

Daily Weather History Graph

Search for Another Location

Airport or City:

Trip Planner

Search our weather history database for the weather conditions in past years. The results will help you decide how hot, cold, wet, or windy it might be!

Date:

Astronomy

Dec. 10, 2012 Rise Set
Actual Time 7:37 AM CST 4:34 PM CST
Civil Twilight 7:04 AM CST 5:07 PM CST
Nautical Twilight 6:28 AM CST 5:43 PM CST
Astronomical Twilight 5:53 AM CST 6:19 PM CST
Moon 4:17 AM CST (12/10) 2:27 PM CST (12/10)
Length of Visible Light 10h 02m
Length of Day
8h 56m
Waning Crescent, 10% of the Moon is Illuminated
Dec 10
Waning Crescent
Dec 13
New
Dec 19
First Quarter
Dec 28
Full
Jan 4
Last Quarter

Hourly Weather History & Observations

Time (CST) Temp. Windchill Dew Point Humidity Pressure Visibility Wind Dir Wind Speed Gust Speed Precip Events Conditions
12:14 AM 24.8 °F 10.7 °F 17.6 °F 74% 29.85 in 7.0 mi NW 19.6 mph - N/A   Overcast
12:33 AM 24.8 °F 11.1 °F 17.6 °F 74% 29.86 in 7.0 mi NW 18.4 mph - N/A   Overcast
12:53 AM 23.0 °F 10.1 °F 15.8 °F 74% 29.87 in 10.0 mi WNW 15.0 mph - N/A   Overcast
1:14 AM 21.2 °F 6.8 °F 14.0 °F 74% 29.87 in 7.0 mi NW 17.3 mph - N/A   Overcast
1:33 AM 19.4 °F 6.6 °F 12.2 °F 74% 29.87 in 10.0 mi NW 12.7 mph - N/A   Overcast
1:53 AM 19.4 °F 6.0 °F 12.2 °F 74% 29.88 in 10.0 mi NW 13.8 mph - N/A   Overcast
2:13 AM 19.4 °F 6.6 °F 12.2 °F 74% 29.88 in 10.0 mi NW 12.7 mph - N/A   Overcast
2:33 AM 19.4 °F 6.0 °F 12.2 °F 74% 29.89 in 10.0 mi WNW 13.8 mph - N/A   Overcast
2:54 AM 19.4 °F 5.5 °F 12.2 °F 74% 29.89 in 10.0 mi WNW 15.0 mph - N/A   Overcast
3:13 AM 17.6 °F 3.2 °F 10.4 °F 73% 29.90 in 10.0 mi WNW 15.0 mph 19.6 mph N/A   Overcast
3:34 AM 17.6 °F 4.3 °F 10.4 °F 73% 29.89 in 10.0 mi NW 12.7 mph - N/A Snow Light Snow
3:54 AM 15.8 °F 2.7 °F 8.6 °F 73% 29.89 in 10.0 mi NW 11.5 mph - N/A Snow Light Snow
4:14 AM 15.8 °F 2.1 °F 8.6 °F 73% 29.89 in 10.0 mi NW 12.7 mph - N/A   Overcast
4:33 AM 15.8 °F 1.4 °F 8.6 °F 73% 29.89 in 10.0 mi WNW 13.8 mph - N/A   Overcast
4:53 AM 15.8 °F 0.9 °F 6.8 °F 68% 29.89 in 10.0 mi WNW 15.0 mph - N/A   Overcast
5:13 AM 15.8 °F 0.3 °F 6.8 °F 68% 29.89 in 10.0 mi WNW 16.1 mph - N/A   Overcast
5:33 AM 14.0 °F -0.2 °F 6.8 °F 73% 29.90 in 10.0 mi WNW 12.7 mph - N/A   Overcast
6:14 AM 12.2 °F -1.8 °F 6.8 °F 79% 29.90 in 10.0 mi WNW 11.5 mph - N/A   Overcast
6:33 AM 14.0 °F 0.5 °F 6.8 °F 73% 29.91 in 10.0 mi WNW 11.5 mph - N/A   Overcast
6:53 AM 12.2 °F -0.2 °F 5.0 °F 73% 29.91 in 7.0 mi West 9.2 mph - N/A Snow Light Snow
7:13 AM 10.4 °F -2.4 °F 3.2 °F 73% 29.92 in 10.0 mi West 9.2 mph - N/A Snow Light Snow
7:33 AM 10.4 °F -2.4 °F 3.2 °F 73% 29.91 in 10.0 mi West 9.2 mph - N/A Snow Light Snow
7:53 AM 10.4 °F -2.4 °F 3.2 °F 73% 29.91 in 10.0 mi West 9.2 mph - N/A   Overcast
8:13 AM 10.4 °F -2.4 °F 3.2 °F 73% 29.92 in 10.0 mi West 9.2 mph - N/A Snow Light Snow
8:34 AM 8.6 °F -4.7 °F 1.4 °F 73% 29.91 in 10.0 mi West 9.2 mph - N/A   Overcast
8:53 AM 8.6 °F -3.7 °F 1.4 °F 73% 29.92 in 10.0 mi West 8.1 mph - N/A   Mostly Cloudy
9:13 AM 8.6 °F -3.7 °F 1.4 °F 73% 29.92 in 10.0 mi West 8.1 mph - N/A   Mostly Cloudy
9:33 AM 8.6 °F -3.7 °F 1.4 °F 73% 29.92 in 10.0 mi West 8.1 mph - N/A   Overcast
9:54 AM 8.6 °F -6.3 °F 1.4 °F 73% 29.93 in 10.0 mi West 11.5 mph - N/A   Overcast
10:14 AM 8.6 °F -5.5 °F 1.4 °F 73% 29.93 in 10.0 mi West 10.4 mph - N/A   Overcast
10:33 AM 8.6 °F -4.7 °F 1.4 °F 73% 29.94 in 10.0 mi West 9.2 mph - N/A   Overcast
10:53 AM 8.6 °F -4.7 °F 1.4 °F 73% 29.94 in 10.0 mi West 9.2 mph - N/A   Overcast
11:13 AM 8.6 °F -2.6 °F 1.4 °F 73% 29.93 in 10.0 mi West 6.9 mph - N/A   Overcast
11:53 AM 8.6 °F -3.7 °F 1.4 °F 73% 29.92 in 10.0 mi WSW 8.1 mph - N/A   Overcast
12:13 PM 8.6 °F -1.3 °F 1.4 °F 73% 29.91 in 10.0 mi WSW 5.8 mph - N/A   Overcast
12:33 PM 8.6 °F -1.3 °F -0.4 °F 67% 29.91 in 10.0 mi West 5.8 mph - N/A   Mostly Cloudy
12:53 PM 8.6 °F -1.3 °F -0.4 °F 67% 29.90 in 10.0 mi West 5.8 mph - N/A   Scattered Clouds
1:13 PM 8.6 °F 0.1 °F -0.4 °F 67% 29.89 in 10.0 mi WSW 4.6 mph - N/A   Clear
1:33 PM 8.6 °F -1.3 °F -0.4 °F 67% 29.90 in 10.0 mi WSW 5.8 mph - N/A   Clear
1:55 PM 8.6 °F -3.7 °F -0.4 °F 67% 29.89 in 10.0 mi WSW 8.1 mph - N/A   Clear
2:13 PM 8.6 °F -1.3 °F -0.4 °F 67% 29.89 in 10.0 mi WSW 5.8 mph - N/A   Clear
2:33 PM 8.6 °F -1.3 °F -0.4 °F 67% 29.88 in 10.0 mi WSW 5.8 mph - N/A   Clear
2:53 PM 8.6 °F 0.1 °F -0.4 °F 67% 29.88 in 10.0 mi WSW 4.6 mph - N/A   Clear
3:14 PM 8.6 °F 0.1 °F -0.4 °F 67% 29.88 in 10.0 mi WSW 4.6 mph - N/A   Clear
3:33 PM 6.8 °F -3.5 °F -2.2 °F 67% 29.89 in 10.0 mi SW 5.8 mph - N/A   Clear
3:53 PM 6.8 °F -0.1 °F -2.2 °F 67% 29.88 in 10.0 mi SW 3.5 mph - N/A   Clear
4:14 PM 3.2 °F -4.2 °F -4.0 °F 72% 29.88 in 10.0 mi South 3.5 mph - N/A   Clear
4:33 PM 3.2 °F -6.2 °F -5.8 °F 66% 29.89 in 10.0 mi SSW 4.6 mph - N/A   Clear
4:54 PM 1.4 °F -6.2 °F -5.8 °F 72% 29.89 in 10.0 mi SSW 3.5 mph - N/A   Clear
5:14 PM 1.4 °F - -5.8 °F 72% 29.89 in 10.0 mi Calm Calm - N/A   Clear
5:33 PM 1.4 °F - -7.6 °F 66% 29.89 in 10.0 mi Calm Calm - N/A   Clear
5:53 PM 1.4 °F -8.3 °F -5.8 °F 72% 29.89 in 10.0 mi SSW 4.6 mph - N/A   Clear
6:13 PM 3.2 °F - -2.2 °F 78% 29.89 in 10.0 mi Calm Calm - N/A   Clear
6:33 PM 3.2 °F -4.2 °F -5.8 °F 66% 29.89 in 10.0 mi SSE 3.5 mph - N/A   Clear
6:53 PM 3.2 °F -4.2 °F -2.2 °F 78% 29.88 in 10.0 mi SSE 3.5 mph - N/A   Clear
7:13 PM 5.0 °F -5.6 °F -2.2 °F 72% 29.88 in 10.0 mi SSE 5.8 mph - N/A   Clear
7:33 PM 6.8 °F -0.1 °F -2.2 °F 67% 29.88 in 10.0 mi SSE 3.5 mph - N/A   Clear
7:53 PM 6.8 °F -0.1 °F -2.2 °F 67% 29.88 in 10.0 mi South 3.5 mph - N/A   Clear
8:13 PM 5.0 °F -4.1 °F -2.2 °F 72% 29.87 in 10.0 mi SE 4.6 mph - N/A   Clear
8:33 PM 6.8 °F -2.0 °F -2.2 °F 67% 29.87 in 10.0 mi SSE 4.6 mph - N/A   Clear
8:54 PM 8.6 °F -1.3 °F -0.4 °F 67% 29.87 in 10.0 mi SSE 5.8 mph - N/A   Clear
9:13 PM 8.6 °F -3.7 °F -0.4 °F 67% 29.87 in 10.0 mi SSE 8.1 mph - N/A   Clear
9:34 PM 8.6 °F -3.7 °F -0.4 °F 67% 29.86 in 10.0 mi SE 8.1 mph - N/A   Clear
9:53 PM 8.6 °F -2.6 °F -0.4 °F 67% 29.85 in 10.0 mi SE 6.9 mph - N/A   Clear
10:13 PM 8.6 °F -2.6 °F -0.4 °F 67% 29.85 in 10.0 mi SE 6.9 mph - N/A   Scattered Clouds
10:33 PM 10.4 °F -1.5 °F 1.4 °F 67% 29.84 in 10.0 mi SE 8.1 mph - N/A   Mostly Cloudy
10:53 PM 12.2 °F 0.7 °F 3.2 °F 67% 29.84 in 10.0 mi SSE 8.1 mph - N/A   Scattered Clouds
11:14 PM 12.2 °F -1.0 °F 5.0 °F 73% 29.83 in 10.0 mi SSE 10.4 mph - N/A   Mostly Cloudy
11:33 PM 14.0 °F 0.5 °F 6.8 °F 73% 29.82 in 10.0 mi SSE 11.5 mph - N/A   Overcast
11:54 PM 15.8 °F 2.1 °F 6.8 °F 68% 29.81 in 10.0 mi SSE 12.7 mph - N/A   Overcast